EW7351 Weather Reports


time (UTC)temp
F
wind
direction
speed
knots
gust
knots
rain 1hr
in
rain 24hr
in
rain mn
in
humidity
%
barometer
mb
20260503185707 81 248 5.2 10.4 0.00 0.00 0.00 31 1017.6
20260503185138 81 159 3.5 9.6 0.00 0.00 0.00 32 1017.6
20260503184639 81 155 3.5 9.6 0.00 0.00 0.00 35 1017.7
20260503184109 81 139 3.5 9.6 0.00 0.00 0.00 32 1017.8
20260503183609 81 221 2.6 9.6 0.00 0.00 0.00 33 1017.8
20260503183259 81 269 4.3 10.4 0.00 0.00 0.00 33 1018.0
20260503182538 81 150 5.2 10.4 0.00 0.00 0.00 32 1018.2
20260503182012 81 249 3.5 8.7 0.00 0.00 0.00 34 1018.3
20260503181447 81 231 3.5 10.4 0.00 0.00 0.00 34 1018.5
20260503180918 80 257 3.5 10.4 0.00 0.00 0.00 32 1018.6
20260503180415 81 280 2.6 8.7 0.00 0.00 0.00 34 1018.7
20260503180111 80 250 3.5 12.2 0.00 0.00 0.00 37 1018.8
20260503175323 81 220 2.6 6.1 0.00 0.00 0.00 35 1018.9
20260503174801 80 119 3.5 9.6 0.00 0.00 0.00 34 1019.0
20260503174237 80 233 4.3 11.3 0.00 0.00 0.00 34 1019.0
20260503173735 80 239 4.3 11.3 0.00 0.00 0.00 36 1019.1
20260503173234 80 177 3.5 9.6 0.00 0.00 0.00 40 1019.3
20260503172954 79 181 3.5 9.6 0.00 0.00 0.00 36 1019.3
20260503172434 79 216 3.5 8.7 0.00 0.00 0.00 36 1019.4
20260503171642 79 193 3.5 8.7 0.00 0.00 0.00 37 1019.5
20260503171114 79 250 4.3 9.6 0.00 0.00 0.00 36 1019.5
20260503170617 79 231 3.5 9.6 0.00 0.00 0.00 37 1019.6
20260503150726 74 231 2.6 7.8 0.00 0.00 0.00 42 1020.0
20260503150204 73 304 2.6 7.0 0.00 0.00 0.00 44 1020.0
20260503131127 62 133 0.9 3.5 0.00 0.00 0.00 63 1019.7
20260503130627 61 222 0.9 2.6 0.00 0.00 0.00 64 1019.7
20260503110804 53 250 0.0 0.0 0.00 0.00 0.00 73 1018.9
20260503100156 56 251 0.0 0.0 0.00 0.00 0.00 66 1018.7
20260503090359 56 250 0.0 0.0 0.00 0.00 0.00 65 1018.6
20260503081155 59 251 0.0 0.9 0.00 0.00 0.00 59 1018.6
20260503080653 59 250 0.0 0.9 0.00 0.00 0.00 58 1018.6
20260503080350 60 250 0.0 0.9 0.00 0.00 0.00 58 1018.6
20260503072926 60 240 0.0 1.7 0.00 0.00 0.00 56 1018.8
20260503072618 60 235 0.0 1.7 0.00 0.00 0.00 56 1018.7
20260503071854 61 255 0.0 1.7 0.00 0.00 0.00 56 1018.8
20260503071330 61 219 0.0 0.9 0.00 0.00 0.00 55 1018.9
20260503070805 61 202 0.0 0.9 0.00 0.00 0.00 55 1018.9
20260503070235 61 221 0.0 0.9 0.00 0.00 0.00 55 1018.9
20260503054855 63 213 0.0 1.7 0.00 0.00 0.00 52 1018.7
20260503054325 62 241 0.0 1.7 0.00 0.00 0.00 52 1018.7
20260503053826 62 184 0.0 0.9 0.00 0.00 0.00 52 1018.8
20260503053257 63 124 0.0 0.9 0.00 0.00 0.00 52 1018.7
20260503052758 63 145 0.0 1.7 0.00 0.00 0.00 52 1018.7
20260503052230 63 205 0.0 1.7 0.00 0.00 0.00 52 1018.5
20260503051728 63 134 0.0 1.7 0.00 0.00 0.00 52 1018.5
20260503051223 63 219 0.0 1.7 0.00 0.00 0.00 52 1018.5
20260503050725 63 248 0.0 0.9 0.00 0.00 0.00 52 1018.5
20260503050159 63 178 0.0 0.9 0.00 0.00 0.00 52 1018.6
20260503045655 63 217 0.0 0.9 0.00 0.00 0.00 52 1018.6
20260503045154 63 255 0.0 0.9 0.00 0.00 0.00 51 1018.6
20260503044914 63 165 0.0 1.7 0.00 0.00 0.00 51 1018.6
20260503044127 63 164 0.9 1.7 0.00 0.00 0.00 51 1018.6
20260503043622 63 220 0.9 1.7 0.00 0.00 0.00 51 1018.6
20260503043347 63 215 0.0 1.7 0.00 0.00 0.00 52 1018.6
20260503042553 63 233 0.0 0.9 0.00 0.00 0.00 52 1018.5
20260503042024 63 230 0.0 0.9 0.00 0.00 0.00 52 1018.5
20260503041524 63 181 0.0 0.9 0.00 0.00 0.00 52 1018.5
20260503041018 62 220 0.0 0.9 0.00 0.00 0.00 53 1018.6
20260503040517 62 211 0.0 0.9 0.00 0.00 0.00 54 1018.6
20260503035946 62 211 0.0 0.9 0.00 0.00 0.00 55 1018.6
20260503035443 61 251 0.0 0.0 0.00 0.00 0.00 55 1018.5
20260503035133 61 251 0.0 0.0 0.00 0.00 0.00 55 1018.5
20260503034351 61 251 0.0 0.0 0.00 0.00 0.00 55 1018.5
20260503034048 61 251 0.0 0.0 0.00 0.00 0.00 56 1018.5
20260503033745 62 251 0.0 0.0 0.00 0.00 0.00 54 1018.5
20260503032733 62 251 0.0 0.0 0.00 0.00 0.00 53 1018.4
20260503032228 63 251 0.0 0.0 0.00 0.00 0.00 53 1018.3
20260503031727 63 251 0.0 0.0 0.00 0.00 0.00 52 1018.3
20260503031159 63 251 0.0 0.0 0.00 0.00 0.00 51 1018.2
20260503030657 64 251 0.0 0.0 0.00 0.00 0.00 50 1018.3
20260503030154 64 251 0.0 0.0 0.00 0.00 0.00 49 1018.2
20260503025648 65 251 0.0 0.0 0.00 0.00 0.00 47 1018.2
20260503025144 66 251 0.0 0.0 0.00 0.00 0.00 46 1018.2
20260503024638 66 251 0.0 0.9 0.00 0.00 0.00 45 1018.0
20260503024134 67 251 0.0 0.9 0.00 0.00 0.00 44 1018.0
20260503023636 67 214 0.0 0.9 0.00 0.00 0.00 44 1018.0
20260503023122 67 233 0.0 0.0 0.00 0.00 0.00 44 1017.9
20260503022624 67 231 0.0 0.0 0.00 0.00 0.00 44 1017.9
20260503022113 67 224 0.0 0.9 0.00 0.00 0.00 44 1017.8
20260503021839 67 245 0.0 0.9 0.00 0.00 0.00 44 1017.8
20260503021049 67 186 0.0 0.0 0.00 0.00 0.00 44 1017.7
20260503020520 66 167 0.0 0.0 0.00 0.00 0.00 44 1017.7
20260503020016 66 142 0.0 0.0 0.00 0.00 0.00 45 1017.7
20260503015454 66 156 0.0 0.0 0.00 0.00 0.00 44 1017.6
20260503014949 65 156 0.0 0.0 0.00 0.00 0.00 45 1017.7
20260503014447 66 156 0.0 0.0 0.00 0.00 0.00 45 1017.6
20260503013919 66 156 0.0 0.0 0.00 0.00 0.00 44 1017.6
20260503013417 67 156 0.0 0.0 0.00 0.00 0.00 43 1017.5
20260503013116 68 156 0.0 0.9 0.00 0.00 0.00 43 1017.5
20260503012343 69 156 0.0 0.9 0.00 0.00 0.00 42 1017.4
20260503011845 69 156 0.0 0.9 0.00 0.00 0.00 40 1017.4
20260503011317 69 123 0.0 0.9 0.00 0.00 0.00 40 1017.4
20260503010815 70 123 0.0 0.9 0.00 0.00 0.00 40 1017.3
20260503010310 71 123 0.0 0.9 0.00 0.00 0.00 38 1017.3
20260503005806 71 123 0.0 0.9 0.00 0.00 0.00 36 1017.3
20260503005300 72 123 0.0 1.7 0.00 0.00 0.00 34 1017.2
20260503004759 73 123 0.0 1.7 0.00 0.00 0.00 34 1017.2
20260503004255 73 172 0.0 2.6 0.00 0.00 0.00 33 1017.1
20260503003753 74 239 0.0 2.6 0.00 0.00 0.00 32 1017.1
20260503003240 75 199 0.0 2.6 0.00 0.00 0.00 31 1017.1
20260503002740 75 200 0.0 2.6 0.00 0.00 0.00 30 1017.1
20260503002230 76 221 0.0 2.6 0.00 0.00 0.00 30 1017.1
20260503001729 78 256 0.0 2.6 0.00 0.00 0.00 28 1017.0
20260503001423 78 272 0.0 2.6 0.00 0.00 0.00 27 1017.0
20260503000913 78 257 0.0 0.9 0.00 0.00 0.00 28 1017.0
20260503000153 78 257 0.0 0.9 0.00 0.00 0.00 29 1017.0
20260502235627 77 37 0.0 1.7 0.00 0.00 0.00 28 1016.9
20260502235058 77 266 0.0 2.6 0.00 0.00 0.00 28 1017.0
20260502234532 77 283 0.9 2.6 0.00 0.00 0.00 29 1017.1
20260502234030 77 345 0.9 2.6 0.00 0.00 0.00 26 1017.1
20260502233528 77 334 0.0 1.7 0.00 0.00 0.00 28 1017.1
20260502232955 77 1 0.9 3.5 0.00 0.00 0.00 28 1017.1
20260502232426 77 11 0.9 3.5 0.00 0.00 0.00 27 1017.2
20260502231902 77 342 0.9 2.6 0.00 0.00 0.00 27 1017.2
20260502231358 77 340 1.7 5.2 0.00 0.00 0.00 28 1017.2
20260502231117 77 39 0.9 5.2 0.00 0.00 0.00 26 1017.2
20260502230336 77 23 0.9 4.3 0.00 0.00 0.00 26 1017.2
20260502225758 77 340 0.9 4.3 0.00 0.00 0.00 26 1017.3
20260502225257 77 70 0.0 4.3 0.00 0.00 0.00 27 1017.3
20260502224744 78 4 0.0 4.3 0.00 0.00 0.00 26 1017.3
20260502224244 78 3 0.9 4.3 0.00 0.00 0.00 25 1017.4
20260502223717 77 231 0.9 5.2 0.00 0.00 0.00 25 1017.4
20260502223148 77 359 1.7 6.1 0.00 0.00 0.00 26 1017.4
20260502222646 77 344 1.7 6.1 0.00 0.00 0.00 26 1017.5
20260502222345 77 53 1.7 7.0 0.00 0.00 0.00 26 1017.5
20260502221815 77 10 0.9 7.0 0.00 0.00 0.00 26 1017.5
20260502221048 77 341 0.9 6.1 0.00 0.00 0.00 26 1017.4
20260502220522 77 338 0.9 4.3 0.00 0.00 0.00 26 1017.5
20260502220225 77 41 1.7 4.3 0.00 0.00 0.00 26 1017.5
20260502215456 77 328 1.7 5.2 0.00 0.00 0.00 25 1017.6
20260502214954 77 263 1.7 6.1 0.00 0.00 0.00 26 1017.6
20260502214709 78 95 0.9 6.1 0.00 0.00 0.00 28 1017.6
20260502213946 78 205 0.9 3.5 0.00 0.00 0.00 27 1017.7
20260502213421 77 217 0.9 3.5 0.00 0.00 0.00 28 1017.8
20260502212854 77 67 1.7 3.5 0.00 0.00 0.00 27 1017.9
20260502212329 77 39 1.7 5.2 0.00 0.00 0.00 27 1018.0
20260502211803 77 352 0.9 6.1 0.00 0.00 0.00 27 1018.0
20260502211240 77 32 0.9 6.1 0.00 0.00 0.00 27 1018.0
20260502210711 77 32 0.9 6.1 0.00 0.00 0.00 30 1018.2
20260502210147 77 18 0.9 6.1 0.00 0.00 0.00 26 1018.3
20260502205621 78 353 1.7 6.1 0.00 0.00 0.00 24 1018.3
20260502205607 78 7 1.7 6.1 0.00 0.00 0.00 29 1018.4
20260502204616 78 331 0.9 4.3 0.00 0.00 0.00 30 1018.5
20260502204048 78 255 0.9 5.2 0.00 0.00 0.00 30 1018.5
20260502203548 77 255 1.7 5.2 0.00 0.00 0.00 30 1018.5
20260502203028 77 272 2.6 7.8 0.00 0.00 0.00 30 1018.6
20260502202516 76 311 2.6 7.8 0.00 0.00 0.00 26 1018.6
20260502202244 77 347 1.7 6.1 0.00 0.00 0.00 27 1018.7
20260502201506 78 354 0.0 6.1 0.00 0.00 0.00 31 1018.8
20260502201007 77 122 0.9 5.2 0.00 0.00 0.00 30 1018.8
20260502200506 77 70 0.9 5.2 0.00 0.00 0.00 30 1018.8
20260502195943 77 235 0.0 5.2 0.00 0.00 0.00 33 1018.9
20260502195443 76 161 0.9 7.0 0.00 0.00 0.00 36 1019.0
20260502194920 75 340 2.6 7.0 0.00 0.00 0.00 27 1019.0
20260502194418 76 319 1.7 7.0 0.00 0.00 0.00 27 1019.1
20260502194125 76 13 0.9 4.3 0.00 0.00 0.00 27 1019.1
20260502193344 76 343 0.9 4.3 0.00 0.00 0.00 30 1019.2
20260502192829 75 335 1.7 8.7 0.00 0.00 0.00 28 1019.3
20260502192528 75 19 1.7 8.7 0.00 0.00 0.00 29 1019.3
20260502191759 76 339 0.9 6.1 0.00 0.00 0.00 29 1019.4
20260502191247 77 18 0.9 6.1 0.00 0.00 0.00 27 1019.4
20260502190724 76 220 0.9 6.1 0.00 0.00 0.00 31 1019.5